星链-1907 (STARLINK-1907 )

导读

STARLINK-1907是美国太空探索技术公司(SpaceX)星链计划中的一颗卫星,于2020年11月25日发射入轨。星链计划旨在构建全球卫星互联网星座,为全球提供高速互联网接入服务,该卫星加入星座后,进一步拓展了星链网络的覆盖范围与服务能力。

Basic Information
目录编号:
47177
目录名称:
STARLINK-1907
国际标识:
2020-088BH
轨道中心:
EARTH
卫星名称:
星链-1907
卫星全名:
星链-1907 (STARLINK-1907 )
卫星状态:
已陨落 最后检测时间 2025-03-05
发射日期:
2020-11-25 UTC
国别 :
美国 (US)
星等 :
--
Orbit Information
数据来源 国际轨道数据
星历时间: 2025-03-05T09:01:08+0800
轨道信息已过期470天
半长轴: 6528.035km
偏心率: 0.0009893
轨道倾角: 53.015°
近地点辐角 326.055°
升交点赤经 105.289°
平近点角 111.387°
近地点: 143.441km
远地点: 156.359km
周期: 87.485分钟
每日圈数: 16.459973
Detailed Information
固有亮度:
5
最大亮度:
2.5
卫星平台:
Starlink V1.0
覆盖范围:
全球
运营商:
太空探索技术公司
运营商所在国:
美国
制造商(研发单位):
太空探索技术公司
制造商所在国:
美国
使用方式:
暂无
Satellite Introduction
星链(Starlink)计划是由太空探索技术公司(SpaceX)提出的一个巨型低轨卫星互联网星座项目,计划在2019年至2024年间在太空搭建由约1.2万颗卫星组成的“星链”网络,其中1584颗将部署在地球上空550千米处的近地轨道,并从2020年开始工作。该卫星仍在工作。